カタログに戻る

STARLINK-5537

運用中通信VLEO
NORAD 55384·PAYLOAD·🇺🇸 United States

打ち上げ Jan 26, 2023 から Cape Canaveral Space Force Station

Loading…

次のパス (今後24時間)

TLE

最新Source: CelesTrak SupGP

元期: Sep 14, 2026, 21:04 UTC

1 55384C 23013BF  26257.87826389 -.00051903  00000+0 -18797-2 0  2577
2 55384  43.0045 329.7859 0002000 283.8672 156.1407 15.27607412    14

AllMySatでSTARLINK-5537をリアルタイム追跡

Download on the App Store